Track COSMOS 825 now! 10-day predictions COSMOS 825 is classified as:
1 8889U 76054A 21110.90167243 -.00000013 00000-0 19560-4 0 9992 2 8889 74.0039 36.6384 0058190 118.3438 306.5748 12.55702224 55989